ACA967 TBPB-CYYZ

Flight info

Callsign ACA967
Flight time N/A
Altitude 38000
Route FOF UA555 ILURI Y185 DONQU DCT LNHOM/M079F380 L452 OXANA/N0450F380 AR8 ECG DCT EDDYS DCT RIC DCT CSN DCT PSB DCT WOZEE LINNG3
Aircraft A21N/M-SDE2E3FGHIRWXY/LB1

Departure

Time 2026-04-29 21:51
Airport Grantley Adams International Airport (TBPB)

Arrival

Time N/A
Airport Toronto Pearson International Airport (CYYZ)
Time Latitude Longitude Altitude Speed Heading
2026-04-29 21:16 13.07924 -59.48566 173 ft 0 kts 345°
2026-04-29 21:43 13.07910 -59.48562 172 ft 4 kts 343°
2026-04-29 21:43 13.07884 -59.48554 172 ft 4 kts 337°
2026-04-29 21:44 13.07860 -59.48542 172 ft 4 kts 327°
2026-04-29 21:44 13.07839 -59.48526 172 ft 4 kts 297°
2026-04-29 21:44 13.07833 -59.48510 172 ft 1 kts 256°
2026-04-29 21:44 13.07834 -59.48507 172 ft 0 kts 256°
2026-04-29 21:47 13.07827 -59.48534 172 ft 9 kts 255°
2026-04-29 21:47 13.07807 -59.48612 172 ft 14 kts 255°
2026-04-29 21:47 13.07773 -59.48731 172 ft 20 kts 244°
2026-04-29 21:48 13.07714 -59.48872 173 ft 23 kts 255°
2026-04-29 21:48 13.07671 -59.49050 173 ft 28 kts 256°
2026-04-29 21:48 13.07622 -59.49251 173 ft 30 kts 256°
2026-04-29 21:48 13.07568 -59.49468 173 ft 34 kts 256°
2026-04-29 21:49 13.07508 -59.49713 173 ft 36 kts 256°
2026-04-29 21:49 13.07445 -59.49969 173 ft 37 kts 256°
2026-04-29 21:49 13.07381 -59.50228 173 ft 38 kts 256°
2026-04-29 21:49 13.07318 -59.50485 173 ft 38 kts 255°
2026-04-29 21:50 13.07261 -59.50698 172 ft 3 kts 239°
2026-04-29 21:50 13.07238 -59.50718 172 ft 10 kts 210°
2026-04-29 21:50 13.07143 -59.50708 173 ft 17 kts 159°
2026-04-29 21:50 13.07126 -59.50582 173 ft 37 kts 75°
2026-04-29 21:51 13.07254 -59.50067 175 ft 108 kts 76°
2026-04-29 21:51 13.07484 -59.49134 180 ft 159 kts 75°
2026-04-29 21:51 13.08099 -59.46903 1360 ft 167 kts 74°
2026-04-29 21:52 13.08442 -59.45728 1974 ft 177 kts 72°
2026-04-29 21:52 13.09137 -59.44654 2399 ft 194 kts 38°
2026-04-29 21:52 13.10498 -59.44178 2691 ft 226 kts
2026-04-29 21:52 13.12083 -59.44625 3145 ft 252 kts 329°
2026-04-29 21:53 13.13330 -59.45935 3600 ft 272 kts 298°
2026-04-29 21:53 13.14076 -59.47762 4376 ft 278 kts 291°
2026-04-29 21:53 13.14866 -59.49573 5317 ft 279 kts 298°
2026-04-29 21:53 13.15915 -59.51268 6110 ft 283 kts 307°
2026-04-29 21:54 13.17165 -59.52834 6826 ft 289 kts 312°
2026-04-29 21:54 13.18553 -59.54355 7558 ft 294 kts 315°
2026-04-29 21:54 13.19993 -59.55852 8328 ft 297 kts 316°
2026-04-29 21:54 13.21468 -59.57368 9035 ft 302 kts 316°
2026-04-29 21:55 13.22965 -59.58910 9755 ft 306 kts 316°
2026-04-29 21:55 13.24484 -59.60483 10260 ft 317 kts 316°
2026-04-29 21:55 13.26063 -59.62123 10452 ft 337 kts 316°
2026-04-29 21:55 13.27760 -59.63891 10654 ft 356 kts 316°
2026-04-29 21:56 13.29514 -59.65721 11169 ft 361 kts 316°
2026-04-29 21:56 13.31282 -59.67570 11799 ft 364 kts 316°
2026-04-29 21:56 13.33065 -59.69435 12417 ft 367 kts 316°
2026-04-29 21:56 13.34847 -59.71299 13020 ft 370 kts 316°
2026-04-29 21:57 13.36660 -59.73194 13617 ft 373 kts 316°
2026-04-29 21:57 13.38488 -59.75105 14148 ft 377 kts 316°
2026-04-29 21:57 13.40338 -59.77038 14669 ft 380 kts 316°
2026-04-29 21:57 13.42199 -59.78982 15189 ft 383 kts 315°
2026-04-29 21:58 13.44077 -59.80944 15688 ft 386 kts 315°
2026-04-29 21:58 13.45974 -59.82927 16177 ft 389 kts 315°
2026-04-29 21:58 13.47857 -59.84897 16671 ft 392 kts 315°
2026-04-29 21:58 13.49784 -59.86913 17145 ft 395 kts 315°
2026-04-29 21:59 13.51719 -59.88939 17616 ft 398 kts 314°
2026-04-29 21:59 13.53673 -59.90986 18093 ft 401 kts 314°
2026-04-29 21:59 13.55638 -59.93044 18510 ft 404 kts 314°
2026-04-29 21:59 13.57589 -59.95090 18936 ft 405 kts 314°
2026-04-29 22:00 13.59572 -59.97170 19335 ft 408 kts 314°
2026-04-29 22:00 13.61563 -59.99259 19744 ft 410 kts 314°
2026-04-29 22:00 13.63572 -60.01369 20151 ft 412 kts 313°
2026-04-29 22:00 13.65556 -60.03453 20547 ft 414 kts 313°
2026-04-29 22:01 13.67583 -60.05582 20941 ft 417 kts 313°
2026-04-29 22:01 13.69507 -60.07604 21308 ft 419 kts 313°
2026-04-29 22:01 13.71553 -60.09754 21715 ft 421 kts 313°
2026-04-29 22:01 13.73617 -60.11923 22096 ft 423 kts 313°
2026-04-29 22:02 13.75656 -60.14067 22481 ft 425 kts 313°
2026-04-29 22:02 13.77733 -60.16251 22869 ft 427 kts 313°
2026-04-29 22:02 13.79821 -60.18448 23241 ft 430 kts 313°
2026-04-29 22:02 13.81921 -60.20658 23601 ft 432 kts 313°
2026-04-29 22:03 13.84031 -60.22879 23933 ft 433 kts 313°
2026-04-29 22:03 13.86136 -60.25095 24287 ft 433 kts 313°
2026-04-29 22:03 13.88224 -60.27296 24604 ft 435 kts 313°
2026-04-29 22:03 13.90168 -60.29344 24911 ft 436 kts 313°
2026-04-29 22:04 13.92357 -60.31652 25239 ft 437 kts 313°
2026-04-29 22:04 13.94487 -60.33900 25579 ft 437 kts 312°
2026-04-29 22:04 13.96617 -60.36148 25880 ft 439 kts 313°
2026-04-29 22:04 13.98757 -60.38405 26198 ft 440 kts 313°
2026-04-29 22:05 14.00869 -60.40633 26495 ft 441 kts 313°
2026-04-29 22:05 14.03018 -60.42901 26783 ft 442 kts 313°
2026-04-29 22:05 14.07322 -60.47443 27362 ft 444 kts 313°
2026-04-29 22:06 14.09484 -60.49726 27620 ft 446 kts 313°
2026-04-29 22:06 14.11654 -60.52018 27893 ft 447 kts 313°
2026-04-29 22:06 14.13808 -60.54293 28154 ft 448 kts 313°
2026-04-29 22:06 14.15988 -60.56597 28417 ft 449 kts 313°
2026-04-29 22:07 14.18175 -60.58909 28645 ft 451 kts 313°
2026-04-29 22:07 14.20370 -60.61230 28896 ft 452 kts 313°
2026-04-29 22:07 14.22571 -60.63558 29134 ft 453 kts 313°
2026-04-29 22:07 14.24775 -60.65890 29355 ft 454 kts 313°
2026-04-29 22:08 14.26984 -60.68227 29593 ft 456 kts 312°
2026-04-29 22:08 14.29207 -60.70581 29830 ft 457 kts 312°
2026-04-29 22:08 14.31403 -60.72906 30051 ft 458 kts 312°
2026-04-29 22:09 14.32156 -60.73704 30119 ft 459 kts 312°